Погода в Сальнице

Украина / Винницкая область     49°44′11″N   28°01′04″E
темп.,
°C
ветер,
м/с
пор.,
м/с
влажн.,
%
обл.,
%
осадки,
мм/ч
давл.,
гПа
погр.,
м
19 апреля, пн
пн1900:00+6вюв239181 0.0 101837
03:00+7в228691 0.0 101736
06:00+6всв349193 0.0 1017125
09:00+7в447498 0.0 1017387
12:00+11в3358100 0.0 10161230
15:00+13в4447100 0.1 10151985
18:00+11всв5663100 0.1 1015868
21:00+8всв3872100 0.1 1016229
20 апреля, вт
вт2000:00+8всв2572100 0.0 1015132
03:00+5ссв3587100 0.1 101398
06:00+3ссв3694100 0.1 1013116
09:00+8ссв46775 0.1 1012557
12:00+9ссв677364 0.7 10111039
15:00+11ссв565797 0.9 10101476
18:00+10ссв4662100 0.2 10101083
21:00+5ссз238631 0.3 101143
21 апреля, ср
ср2100:00+4сз348477 0.0 101150
03:00+3зсз338784 0.0 101236
06:00+3з3490100 0.0 101267
09:00+7з3576100 0.1 1013391
12:00+11зюз5664100 0.7 10121199
15:00+12зюз675896 1.5 10121548
18:00+12зюз576497 0.5 10121073
21:00+8зюз377961 0.9 1014119
22 апреля, чт
чт2200:00+6зюз488726 0.0 1014136
03:00+5зюз389189 0.0 1015140
06:00+5юз369293 0.0 1015110
09:00+10юз47695 0.0 1016405
12:00+14юз575838 0.3 10161475
15:00+14зюз576096 1.8 10151289
18:00+12зсз567399 0.6 1016637
21:00+8юз2692100 1.8 1017187
23 апреля, пт
пт2300:00+8ююз2591100 0.4 1015119
03:00+7ю3893100 0.5 1014171
06:00+6з3595100 0.1 1014108
09:00+6ссз7890100 0.1 1016732
12:00+2сз3897100 2.8 1019374
15:00+8сз4666100 3.2 10181271
18:00+8зсз3665100 0.0 10181253
21:00+5сз510795 0.1 1019335